This is the latest recevied weather packets stored in our database for station/object IZ1UQG-N2. If no packets are shown the sender has not sent any weather packets the latest 10 day(s).
| Time | Temp. | Humidity | Pressure | Rain* | Wind** | Luminosity | Snow |
|---|---|---|---|---|---|---|---|
| 1787573823 | 27.78° C | 55% | 1014.6 hPa | 0 mm | - | 703 W/m² | - |
| 1787573763 | 27.22° C | 55% | 1014.6 hPa | 0 mm | - | 687 W/m² | - |
| 1787573702 | 27.78° C | 54% | 1014.8 hPa | 0 mm | - | 654 W/m² | - |
| 1787573642 | 27.78° C | 54% | 1014.7 hPa | 0 mm | - | 657 W/m² | - |
| 1787573582 | 27.78° C | 53% | 1014.7 hPa | 0 mm | - | 730 W/m² | - |
| 1787573522 | 27.78° C | 54% | 1014.7 hPa | 0 mm | - | 777 W/m² | - |
| 1787573461 | 27.78° C | 55% | 1014.7 hPa | 0 mm | - | 788 W/m² | - |
| 1787573403 | 27.22° C | 54% | 1014.7 hPa | 0 mm | - | 684 W/m² | - |
| 1787573343 | 27.78° C | 54% | 1014.8 hPa | 0 mm | - | 752 W/m² | - |
| 1787573283 | 27.78° C | 54% | 1014.8 hPa | 0 mm | - | 703 W/m² | - |
| 1787573222 | 27.78° C | 54% | 1014.9 hPa | 0 mm | - | 656 W/m² | - |
| 1787573162 | 27.22° C | 54% | 1014.8 hPa | 0 mm | - | 684 W/m² | - |
| 1787573102 | 27.22° C | 55% | 1014.8 hPa | 0 mm | - | 622 W/m² | - |
| 1787573043 | 27.22° C | 54% | 1014.8 hPa | 0 mm | - | 642 W/m² | - |
| 1787572983 | 27.22° C | 55% | 1014.8 hPa | 0 mm | - | 636 W/m² | - |
| 1787572923 | 27.22° C | 54% | 1014.8 hPa | 0 mm | - | 450 W/m² | - |
| 1787572862 | 27.78° C | 54% | 1014.8 hPa | 0 mm | - | 631 W/m² | - |
| 1787572802 | 27.78° C | 54% | 1014.7 hPa | 0 mm | - | 715 W/m² | - |
| 1787572742 | 27.78° C | 54% | 1014.9 hPa | 0 mm | - | 747 W/m² | - |
| 1787572682 | 27.78° C | 54% | 1014.9 hPa | 0 mm | - | 781 W/m² | - |
| 1787572622 | 27.78° C | 54% | 1014.9 hPa | 0 mm | - | 689 W/m² | - |
| 1787572562 | 27.22° C | 54% | 1014.8 hPa | 0 mm | - | 668 W/m² | - |
| 1787572503 | 27.22° C | 54% | 1014.8 hPa | 0 mm | - | 700 W/m² | - |
| 1787572443 | 27.22° C | 54% | 1014.8 hPa | 0 mm | - | 441 W/m² | - |
| 1787572383 | 27.78° C | 53% | 1014.8 hPa | 0 mm | - | 606 W/m² | - |
* Rain latest hour (hover to see other rain measurements)
** Current wind speed in m/s (hover to see current wind gust speed)